Home   Weather   Vantaa   Past weeks

Flag for Finland Past Weather in Vantaa, Finland — Yesterday and Last 2 Weeks

43 °F

Passing clouds.

Feels Like: 36 °F
Forecast: 37 / 40 °F
Wind: 14 mph from Southeast

Location: Helsinki-Vantaa

Current Time: Oct 24, 2016 at 7:10:04 PM

Latest Report: Oct 24, 2016 at 6:50 PM

Visibility: N/A

Pressure: 30.57 "Hg

Humidity: 66%

Dew Point: 32 °F

Location of VantaaLocation

Past Weather in Vantaa — Graph


Vantaa Temperature Yesterday

Maximum temperature yesterday: 43 °F (at 10:20 AM)
Minimum temperature yesterday: 39 °F (at 12:20 AM)
Average temperature yesterday: 41 °F

High & Low Weather Summary for the Past Weeks

High46 °F (Oct 10, 1:20 PM)100% (Oct 13, 8:50 AM)30.69 "Hg (Oct 13, 8:50 AM)
Low27 °F (Oct 19, 3:50 AM)57% (Oct 19, 2:20 PM)30.33 "Hg (Oct 19, 1:50 AM)
Average39 °F79%30.53 "Hg
* Reported Oct 9 5:20 PM — Oct 24 5:50 PM, Vantaa, Weather by CustomWeather, © 2016

Note: Actual official high and low records may vary slightly from our data, if they occured in-between our weather recording intervals... More about our weather records


Vantaa Weather History for the Previous 24 Hours

Scroll right to see more
Time TempWeatherWind HumidityBarometerVisibility
5:50 PM
Mon, Oct 24
41 °FPartly cloudy.12 mph70%30.57 "HgN/A
5:20 PM43 °FPartly sunny.14 mph71%30.57 "HgN/A
4:50 PM41 °FPartly sunny.12 mph76%30.57 "HgN/A
4:20 PM41 °FPartly sunny.14 mph76%30.57 "HgN/A
3:50 PM41 °FMore clouds than sun.14 mph76%30.57 "HgN/A
3:20 PM41 °FLight rain. More clouds than sun.13 mph76%30.57 "HgN/A
2:50 PM41 °FLight rain. Partly sunny.14 mph76%30.60 "HgN/A
2:20 PM41 °FLight rain. Partly sunny.12 mph76%30.60 "HgN/A
1:50 PM41 °FLight rain. Partly sunny.14 mph76%30.60 "HgN/A
1:20 PM41 °FPartly sunny.14 mph70%30.60 "HgN/A
12:50 PM41 °FPartly sunny.16 mph70%30.60 "HgN/A
12:20 PM41 °FPartly sunny.17 mph70%30.60 "HgN/A
11:50 AM41 °FPartly sunny.16 mph76%30.60 "HgN/A
11:20 AM39 °FLight rain. Partly sunny.13 mph81%30.60 "HgN/A
10:50 AM39 °FLight rain. Broken clouds.17 mph81%30.60 "HgN/A
10:20 AM39 °FLight rain. Partly sunny.14 mph81%30.60 "HgN/A
9:50 AM39 °FLight rain. Broken clouds.13 mph81%30.60 "HgN/A
9:20 AM39 °FLight rain. Broken clouds.16 mph81%30.60 "HgN/A
8:50 AM39 °FLight rain. Partly sunny.16 mph81%30.60 "HgN/A
8:20 AM39 °FLight rain. Passing clouds.14 mph81%30.60 "HgN/A
7:50 AM39 °FLight rain. Partly cloudy.15 mph81%30.60 "HgN/A
7:20 AM39 °FLight rain. Partly cloudy.15 mph81%30.60 "HgN/A
6:50 AM39 °FPartly cloudy.15 mph81%30.60 "HgN/A
6:20 AM39 °FLight rain. Partly cloudy.15 mph81%30.60 "HgN/A
5:50 AM39 °FLight rain. Partly cloudy.13 mph81%30.60 "HgN/A
5:20 AM39 °FPassing clouds.10 mph75%30.60 "HgN/A
4:50 AM39 °FPassing clouds.10 mph81%30.60 "HgN/A
4:20 AM39 °FLight rain. Passing clouds.10 mph81%30.60 "HgN/A
3:50 AM39 °FLight rain. Passing clouds.12 mph81%30.60 "HgN/A
3:20 AM39 °FLight rain. Passing clouds.13 mph81%30.60 "HgN/A
2:50 AM39 °FLight rain. Passing clouds.12 mph81%30.60 "HgN/A
2:20 AM39 °FLight rain. Passing clouds.10 mph81%30.60 "HgN/A
1:50 AM39 °FLight rain. Passing clouds.10 mph81%30.60 "HgN/A
1:20 AM39 °FLight rain. Passing clouds.15 mph81%30.60 "HgN/A
12:50 AM41 °FLight rain. Passing clouds.15 mph76%30.60 "HgN/A
12:20 AM41 °FLight rain. Partly cloudy.14 mph70%30.60 "HgN/A
11:50 PM
Sun, Oct 23
41 °FLight rain. Passing clouds.13 mph76%30.60 "HgN/A
11:20 PM41 °FLight rain. Partly cloudy.15 mph76%30.60 "HgN/A
10:50 PM41 °FLight rain. Passing clouds.17 mph76%30.60 "HgN/A
10:20 PM41 °FLight rain. Passing clouds.16 mph76%30.60 "HgN/A
9:50 PM41 °FLight rain. Passing clouds.14 mph76%30.57 "HgN/A
9:20 PM41 °FLight rain. Passing clouds.17 mph76%30.57 "HgN/A
8:50 PM41 °FLight rain. Partly cloudy.17 mph76%30.57 "HgN/A
8:20 PM43 °FPassing clouds.21 mph66%30.57 "HgN/A
7:50 PM43 °FPassing clouds.17 mph61%30.57 "HgN/A
7:20 PM43 °FPassing clouds.17 mph61%30.57 "HgN/A
Weather by CustomWeather, © 2016

See weather overviewHow to use our weather pages